Weather History for Liberal, KS

Change the Weather History Date:

Friday, April 26, 2013

  Actual Average Record
Temperature  
Mean Temperature 56 °F -  
Max Temperature 66 °F 74 °F 96 °F (1956)
Min Temperature 46 °F 47 °F 28 °F (2006)
Degree Days  
Heating Degree Days 9    
Growing Degree Days 6 (Base 50)    
Moisture  
Dew Point 39 °F    
Average Humidity 57    
Maximum Humidity 82    
Minimum Humidity 32    
Precipitation  
Precipitation 0.30 in - - ()
Sea Level Pressure  
Sea Level Pressure 30.04 in    
Wind  
Wind Speed 12 mph (SSE)    
Max Wind Speed 24 mph    
Max Gust Speed 33 mph    
Visibility 10 miles    
Events Thunderstorm    
Averages and records for this station are not official NWS values.
T = Trace of Precipitation, MM = Missing Value Source: NWS Daily Summary

Daily Weather History Graph

Daily Weather History Graph

Search for Another Location

Airport:

Trip Planner

Search our weather history database for the weather conditions in past years. The results will help you decide how hot, cold, wet, or windy it might be!

Date:

Astronomy

Apr. 26, 2013 Rise Set
Actual Time 6:54 AM CDT 8:28 PM CDT
Civil Twilight 6:27 AM CDT 8:56 PM CDT
Nautical Twilight 5:54 AM CDT 9:29 PM CDT
Astronomical Twilight 5:19 AM CDT 10:04 PM CDT
Moon 9:51 PM CDT (4/26) 7:25 AM CDT (4/26)
Length of Visible Light 14h 28m
Length of Day
13h 33m
Full, 99% of the Moon is Illuminated
Apr 26
Full
May 2
Last Quarter
May 9
New
May 17
First Quarter
May 24
Full

Hourly Weather History & Observations

Time (CDT) Temp. Windchill Dew Point Humidity Pressure Visibility Wind Dir Wind Speed Gust Speed Precip Events Conditions
12:15 AM 50.0 °F - 21.2 °F 32% 30.05 in 10.0 mi South 13.8 mph - N/A   Clear
12:35 AM 50.0 °F - 21.2 °F 32% 30.04 in 10.0 mi South 16.1 mph - N/A   Clear
12:55 AM 50.0 °F - 21.2 °F 32% 30.04 in 10.0 mi SSE 12.7 mph - N/A   Clear
1:15 AM 50.0 °F - 24.8 °F 37% 30.04 in 10.0 mi SSE 11.5 mph - N/A   Clear
1:35 AM 51.8 °F - 24.8 °F 35% 30.04 in 10.0 mi SSE 11.5 mph - N/A   Clear
1:55 AM 51.8 °F - 26.6 °F 38% 30.04 in 10.0 mi SSE 9.2 mph - N/A   Clear
2:15 AM 51.8 °F - 26.6 °F 38% 30.04 in 10.0 mi SSE 8.1 mph - N/A   Clear
2:35 AM 51.8 °F - 26.6 °F 38% 30.04 in 10.0 mi SSE 9.2 mph - N/A   Clear
2:55 AM 50.0 °F - 26.6 °F 40% 30.04 in 10.0 mi SSE 10.4 mph - N/A   Clear
3:15 AM 48.2 °F - 26.6 °F 43% 30.03 in 10.0 mi South 11.5 mph - N/A   Clear
3:35 AM 48.2 °F - 26.6 °F 43% 30.03 in 10.0 mi South 10.4 mph - N/A   Clear
3:55 AM 48.2 °F - 28.4 °F 46% 30.02 in 10.0 mi South 12.7 mph - N/A   Partly Cloudy
4:15 AM 48.2 °F - 28.4 °F 46% 30.02 in 10.0 mi South 11.5 mph - N/A   Partly Cloudy
4:35 AM 48.2 °F - 28.4 °F 46% 30.01 in 10.0 mi South 12.7 mph - N/A   Mostly Cloudy
4:55 AM 51.8 °F - 30.2 °F 44% 30.00 in 10.0 mi South 17.3 mph 20.7 mph N/A   Mostly Cloudy
5:15 AM 51.8 °F - 30.2 °F 44% 29.99 in 10.0 mi South 15.0 mph - N/A   Clear
5:35 AM 50.0 °F - 30.2 °F 47% 29.98 in 10.0 mi South 12.7 mph - N/A   Clear
5:55 AM 50.0 °F - 30.2 °F 47% 29.98 in 10.0 mi South 15.0 mph - N/A   Clear
6:15 AM 50.0 °F - 32.0 °F 50% 29.97 in 10.0 mi South 15.0 mph - N/A   Clear
6:35 AM 48.2 °F - 33.8 °F 58% 29.97 in 10.0 mi SSE 13.8 mph - N/A   Clear
6:55 AM 50.0 °F - 33.8 °F 54% 29.97 in 10.0 mi SSE 12.7 mph - N/A   Clear
7:15 AM 50.0 °F - 33.8 °F 54% 29.98 in 10.0 mi SSE 10.4 mph - N/A   Clear
7:35 AM 50.0 °F - 35.6 °F 58% 29.99 in 10.0 mi SSE 9.2 mph - N/A   Clear
7:55 AM 51.8 °F - 35.6 °F 54% 30.00 in 10.0 mi SE 10.4 mph - N/A   Clear
8:15 AM 53.6 °F - 37.4 °F 54% 30.00 in 10.0 mi SE 10.4 mph - N/A   Clear
8:35 AM 55.4 °F - 37.4 °F 51% 30.01 in 10.0 mi SE 11.5 mph - N/A   Clear
8:55 AM 57.2 °F - 39.2 °F 51% 30.00 in 10.0 mi SSE 13.8 mph - N/A   Clear
9:15 AM 57.2 °F - 39.2 °F 51% 30.01 in 10.0 mi South 16.1 mph 20.7 mph N/A   Clear
9:35 AM 60.8 °F - 39.2 °F 45% 30.01 in 10.0 mi South 13.8 mph - N/A   Clear
9:55 AM 62.6 °F - 41.0 °F 45% 30.00 in 10.0 mi South 12.7 mph 17.3 mph N/A   Clear
10:15 AM 62.6 °F - 42.8 °F 48% 30.00 in 10.0 mi SW 12.7 mph 18.4 mph N/A   Mostly Cloudy
10:35 AM 62.6 °F - 42.8 °F 48% 30.00 in 10.0 mi SSW 9.2 mph 18.4 mph N/A   Overcast
10:55 AM 64.4 °F - 44.6 °F 49% 30.00 in 10.0 mi SSW 10.4 mph - N/A   Mostly Cloudy
11:15 AM 66.2 °F - 44.6 °F 46% 30.00 in 10.0 mi SW 9.2 mph 18.4 mph N/A   Mostly Cloudy
11:35 AM 66.2 °F - 44.6 °F 46% 30.01 in 10.0 mi SW 4.6 mph - N/A   Overcast
11:55 AM 66.2 °F - 44.6 °F 46% 30.00 in 10.0 mi South 5.8 mph - N/A   Overcast
12:15 PM 66.2 °F - 44.6 °F 46% 30.00 in 10.0 mi South 4.6 mph - N/A   Overcast
12:35 PM 66.2 °F - 44.6 °F 46% 30.00 in 10.0 mi Calm Calm - N/A   Overcast
12:55 PM 66.2 °F - 44.6 °F 46% 30.00 in 10.0 mi East 3.5 mph - N/A   Overcast
1:15 PM 66.2 °F - 44.6 °F 46% 29.99 in 10.0 mi East 5.8 mph - N/A   Overcast
1:35 PM 66.2 °F - 44.6 °F 46% 29.99 in 10.0 mi ESE 4.6 mph - N/A   Overcast
1:55 PM 66.2 °F - 46.4 °F 49% 30.00 in 10.0 mi Calm Calm - N/A   Overcast
2:15 PM 60.8 °F - 42.8 °F 52% 30.00 in 9.0 mi NNW 20.7 mph 33.4 mph 0.01 in Thunderstorm Overcast
2:35 PM 57.2 °F - 44.6 °F 63% 30.01 in 10.0 mi NNW 20.7 mph - 0.01 in Thunderstorm Thunderstorm
2:55 PM 55.4 °F - 44.6 °F 67% 30.03 in 10.0 mi NNW 21.9 mph 28.8 mph 0.07 in Thunderstorm Overcast
3:15 PM 55.4 °F - 46.4 °F 72% 30.03 in 7.0 mi North 24.2 mph - 0.03 in   Overcast
3:35 PM 55.4 °F - 46.4 °F 72% 30.05 in 8.0 mi North 20.7 mph 28.8 mph 0.05 in   Mostly Cloudy
3:55 PM 55.4 °F - 46.4 °F 72% 30.09 in 10.0 mi WNW 12.7 mph - 0.06 in   Overcast
4:15 PM 55.4 °F - 48.2 °F 77% 30.09 in 10.0 mi North 15.0 mph - 0.08 in   Overcast
4:35 PM 53.6 °F - 46.4 °F 77% 30.06 in 6.0 mi NNE 24.2 mph 27.6 mph 0.15 in   Overcast
4:55 PM 53.6 °F - 46.4 °F 77% 30.06 in 8.0 mi NNE 23.0 mph - 0.16 in   Mostly Cloudy
5:15 PM 53.6 °F - 46.4 °F 77% 30.06 in 9.0 mi NNE 19.6 mph 25.3 mph 0.01 in   Scattered Clouds
5:35 PM 53.6 °F - 46.4 °F 77% 30.07 in 10.0 mi NNE 12.7 mph 20.7 mph 0.01 in   Partly Cloudy
5:55 PM 55.4 °F - 46.4 °F 72% 30.07 in 10.0 mi NNE 16.1 mph - 0.01 in   Partly Cloudy
6:15 PM 55.4 °F - 46.4 °F 72% 30.06 in 10.0 mi NNE 19.6 mph - N/A   Mostly Cloudy
6:35 PM 55.4 °F - 48.2 °F 77% 30.06 in 10.0 mi NE 16.1 mph - N/A   Mostly Cloudy
6:55 PM 55.4 °F - 48.2 °F 77% 30.05 in 10.0 mi ENE 19.6 mph 25.3 mph N/A   Mostly Cloudy
7:15 PM 57.2 °F - 46.4 °F 67% 30.05 in 10.0 mi East 17.3 mph - N/A   Mostly Cloudy
7:35 PM 55.4 °F - 46.4 °F 72% 30.04 in 10.0 mi East 23.0 mph 29.9 mph N/A   Overcast
7:55 PM 57.2 °F - 46.4 °F 67% 30.08 in 10.0 mi North 15.0 mph 20.7 mph N/A   Overcast
8:15 PM 57.2 °F - 46.4 °F 67% 30.09 in 10.0 mi NNE 17.3 mph - N/A   Mostly Cloudy
8:35 PM 55.4 °F - 46.4 °F 72% 30.10 in 10.0 mi NNE 15.0 mph - N/A   Clear
8:55 PM 53.6 °F - 44.6 °F 72% 30.11 in 10.0 mi North 10.4 mph - N/A   Clear
9:15 PM 53.6 °F - 44.6 °F 72% 30.13 in 10.0 mi North 9.2 mph - N/A   Clear
9:35 PM 51.8 °F - 44.6 °F 76% 30.16 in 10.0 mi WNW 10.4 mph - N/A   Clear
9:55 PM 51.8 °F - 44.6 °F 76% 30.17 in 10.0 mi WNW 10.4 mph - N/A   Clear
10:15 PM 51.8 °F - 44.6 °F 76% 30.18 in 10.0 mi North 4.6 mph - N/A   Clear
10:35 PM 50.0 °F - 42.8 °F 76% 30.19 in 10.0 mi NW 3.5 mph - N/A   Clear
10:55 PM 48.2 °F - 42.8 °F 82% 30.20 in 10.0 mi WNW 8.1 mph - N/A   Clear
11:15 PM 46.4 °F 42.9 °F 41.0 °F 81% 30.20 in 10.0 mi NW 6.9 mph - N/A   Clear
11:35 PM 46.4 °F 42.4 °F 41.0 °F 81% 30.20 in 10.0 mi NW 8.1 mph - N/A   Clear
11:55 PM 46.4 °F 44.3 °F 41.0 °F 81% 30.20 in 10.0 mi NW 4.6 mph - N/A   Clear